GW2438 Weather Reports


Display with metric or nautical units.
time (UTC)temp
F
wind
direction
speed
MPH
gust
MPH
rain 1hr
in
rain 24hr
in
rain mn
in
humidity
%
barometer
mb
20260505223609 68 181 2.0 4.0 0.00 0.00 0.00 62 1016.2
20260505222608 69 254 2.0 7.0 0.00 0.00 0.00 62 1016.2
20260505221606 68 240 3.0 8.0 0.00 0.00 0.00 63 1016.4
20260505220625 67 234 1.0 3.0 0.00 0.00 0.00 64 1016.4
20260505215603 67 254 1.0 3.0 0.00 0.00 0.00 64 1016.3
20260505214601 67 238 1.0 7.0 0.00 0.00 0.00 65 1016.4
20260505213600 67 266 2.0 4.0 0.00 0.00 0.00 63 1016.6
20260505212558 67 273 0.0 1.0 0.00 0.00 0.00 65 1016.6
20260505211556 67 227 1.0 2.0 0.00 0.00 0.00 64 1016.6
20260505210554 66 234 1.0 4.0 0.00 0.00 0.00 66 1016.6
20260505205553 66 254 1.0 2.0 0.00 0.00 0.00 65 1016.6
20260505204631 66 263 1.0 3.0 0.00 0.00 0.00 63 1016.6
20260505203549 66 200 2.0 4.0 0.00 0.00 0.00 65 1016.7
20260505202548 66 220 2.0 4.0 0.00 0.00 0.00 67 1016.6
20260505201546 65 209 1.0 2.0 0.00 0.00 0.00 67 1016.7
20260505200624 65 221 3.0 6.0 0.00 0.00 0.00 68 1016.7
20260505195542 64 226 1.0 4.0 0.00 0.00 0.00 69 1016.7
20260505194540 63 219 1.0 3.0 0.00 0.00 0.00 70 1016.7
20260505193538 64 254 3.0 7.0 0.00 0.00 0.00 70 1016.7
20260505192536 63 226 1.0 3.0 0.00 0.00 0.00 71 1016.7
20260505191535 63 228 2.0 4.0 0.00 0.00 0.00 70 1016.8
20260505190533 62 209 3.0 6.0 0.00 0.00 0.00 72 1016.7
20260505185611 62 229 3.0 7.0 0.00 0.00 0.00 72 1016.7
20260505184530 62 224 1.0 4.0 0.00 0.00 0.00 72 1016.6
20260505183548 61 204 1.0 3.0 0.00 0.00 0.00 74 1016.7
20260505182526 61 200 3.0 6.0 0.00 0.00 0.00 74 1016.6
20260505181524 60 242 1.0 4.0 0.00 0.00 0.00 75 1016.6
20260505180523 60 250 0.0 3.0 0.00 0.00 0.00 75 1016.6
20260505175542 60 228 1.0 4.0 0.00 0.00 0.00 76 1016.6
20260505174521 60 249 1.0 3.0 0.00 0.00 0.00 76 1016.6
20260505173518 59 237 1.0 2.0 0.00 0.00 0.00 77 1016.6
20260505172516 59 168 0.0 2.0 0.00 0.00 0.00 78 1016.4
20260505171615 58 246 1.0 4.0 0.00 0.00 0.00 78 1016.4
20260505170612 58 241 1.0 3.0 0.00 0.00 0.00 78 1016.4
20260505165611 58 244 1.0 4.0 0.00 0.00 0.00 79 1016.3
20260505164609 57 213 1.0 4.0 0.00 0.00 0.00 79 1016.3
20260505163607 57 227 1.0 3.0 0.00 0.00 0.00 79 1016.2
20260505162606 57 232 2.0 3.0 0.00 0.00 0.00 80 1016.2
20260505161604 57 235 1.0 3.0 0.00 0.00 0.00 80 1016.1
20260505160603 57 222 1.0 4.0 0.00 0.00 0.00 80 1016.0
20260505152556 56 206 2.0 4.0 0.00 0.00 0.00 81 1016.0
20260505151554 56 188 2.0 3.0 0.00 0.00 0.00 81 1015.9
20260505150552 56 229 2.0 7.0 0.00 0.00 0.00 81 1015.8
20260505140543 55 218 2.0 3.0 0.00 0.00 0.00 82 1015.3
20260505124610 55 228 2.0 4.0 0.00 0.00 0.00 83 1014.6
20260505123527 55 213 2.0 6.0 0.00 0.00 0.00 83 1014.5
20260505122525 55 234 1.0 3.0 0.00 0.00 0.00 83 1014.5
20260505121523 55 224 1.0 2.0 0.00 0.00 0.00 83 1014.5
20260505120521 55 184 1.0 2.0 0.00 0.00 0.00 83 1014.4
20260505115519 55 237 0.0 2.0 0.00 0.00 0.00 83 1014.3
20260505114519 55 204 0.0 1.0 0.00 0.00 0.00 83 1014.4
20260505113516 55 238 1.0 3.0 0.00 0.00 0.00 83 1014.4
20260505112615 55 210 2.0 4.0 0.00 0.00 0.00 83 1014.3
20260505111613 55 211 2.0 3.0 0.00 0.00 0.00 83 1014.3
20260505110611 55 264 0.0 3.0 0.00 0.00 0.00 83 1014.1
20260505101643 55 213 1.0 2.0 0.00 0.00 0.00 83 1014.0
20260505100601 55 215 1.0 2.0 0.00 0.00 0.00 84 1013.8
20260505095600 55 237 1.0 2.0 0.00 0.00 0.00 84 1013.8
20260505094558 55 214 2.0 6.0 0.00 0.00 0.00 84 1013.7
20260505093555 55 228 2.0 4.0 0.00 0.00 0.00 84 1013.7
20260505092554 55 197 1.0 4.0 0.00 0.00 0.00 84 1013.7
20260505091553 54 185 2.0 3.0 0.00 0.00 0.00 84 1013.6
20260505090552 54 173 0.0 2.0 0.00 0.00 0.00 85 1013.6
20260505085549 54 221 1.0 1.0 0.00 0.00 0.00 85 1013.4
20260505084548 54 230 1.0 3.0 0.00 0.00 0.00 86 1013.5
20260505083546 53 248 1.0 2.0 0.00 0.00 0.00 86 1013.4
20260505082544 53 214 1.0 2.0 0.00 0.00 0.00 86 1013.4
20260505081545 53 220 1.0 3.0 0.00 0.00 0.00 85 1013.5
20260505080540 53 247 2.0 6.0 0.00 0.00 0.00 85 1013.5
20260505075539 53 233 3.0 6.0 0.00 0.00 0.00 85 1013.3
20260505074537 53 210 1.0 3.0 0.00 0.00 0.00 85 1013.2
20260505073556 53 233 1.0 3.0 0.00 0.00 0.00 85 1013.0
20260505072534 53 240 3.0 7.0 0.00 0.00 0.00 84 1012.8
20260505071532 53 233 1.0 3.0 0.00 0.00 0.00 84 1012.8
20260505070530 53 229 2.0 6.0 0.00 0.00 0.00 83 1012.8
20260505065549 54 236 1.0 3.0 0.00 0.00 0.00 83 1012.8
20260505064527 54 237 1.0 4.0 0.00 0.00 0.00 83 1012.7
20260505063525 54 238 1.0 3.0 0.00 0.00 0.00 82 1012.5
20260505062523 54 246 1.0 2.0 0.00 0.00 0.00 82 1012.5
20260505061542 55 228 2.0 6.0 0.00 0.00 0.00 82 1012.3
20260505060520 55 252 2.0 6.0 0.00 0.00 0.00 81 1012.2
20260505055518 55 223 2.0 6.0 0.00 0.00 0.00 82 1012.1
20260505054517 55 259 3.0 8.0 0.00 0.00 0.00 81 1012.0
20260505053614 55 242 3.0 9.0 0.00 0.00 0.00 81 1012.0
20260505052613 56 255 4.0 10.0 0.00 0.00 0.00 80 1012.0
20260505051611 56 228 3.0 7.0 0.00 0.00 0.00 79 1012.0
20260505050630 56 243 2.0 7.0 0.00 0.00 0.00 78 1011.7
20260505041601 59 234 3.0 7.0 0.00 0.00 0.00 71 1011.3
20260505040619 60 235 3.0 4.0 0.00 0.00 0.00 70 1011.0
20260505035557 61 253 3.0 6.0 0.00 0.00 0.00 69 1011.1
20260505034556 62 255 3.0 8.0 0.00 0.00 0.00 67 1010.9
20260505033554 63 231 2.0 8.0 0.00 0.00 0.00 66 1010.7
20260505032553 64 244 4.0 7.0 0.00 0.00 0.00 64 1010.6
20260505031551 65 244 3.0 6.0 0.00 0.00 0.00 63 1010.5
20260505030549 66 254 3.0 7.0 0.00 0.00 0.00 61 1010.3
20260505025548 67 236 3.0 8.0 0.00 0.00 0.00 59 1010.1
20260505024546 68 275 3.0 6.0 0.00 0.00 0.00 58 1010.0
20260505023604 70 255 3.0 9.0 0.00 0.00 0.00 57 1009.9
20260505022542 70 241 4.0 7.0 0.00 0.00 0.00 56 1010.0
20260505021541 71 251 2.0 4.0 0.00 0.00 0.00 55 1009.9
20260505020559 71 250 4.0 8.0 0.00 0.00 0.00 55 1009.9
20260505015537 72 237 4.0 10.0 0.00 0.00 0.00 54 1009.8
20260505014535 73 247 5.0 9.0 0.00 0.00 0.00 53 1009.8
20260505013534 74 254 4.0 11.0 0.00 0.00 0.00 52 1009.9
20260505012552 74 262 3.0 7.0 0.00 0.00 0.00 52 1009.7
20260505011551 75 252 4.0 6.0 0.00 0.00 0.00 52 1009.8
20260505010528 75 274 3.0 6.0 0.00 0.00 0.00 51 1009.8
20260505005547 76 260 1.0 3.0 0.00 0.00 0.00 51 1009.8
20260505004525 76 250 2.0 3.0 0.00 0.00 0.00 51 1009.7
20260505003524 76 242 2.0 8.0 0.00 0.00 0.00 51 1009.8
20260505002542 76 241 4.0 7.0 0.00 0.00 0.00 50 1009.7
20260505001520 77 231 4.0 8.0 0.00 0.00 0.00 49 1009.7
20260505000539 77 268 3.0 7.0 0.00 0.00 0.00 50 1009.6
20260504235517 76 241 2.0 6.0 0.00 0.00 0.00 50 1009.7
20260504234616 76 240 2.0 7.0 0.00 0.00 0.00 51 1009.6
20260504233633 76 273 2.0 6.0 0.00 0.00 0.00 51 1009.6
20260504232612 76 237 3.0 8.0 0.00 0.00 0.00 51 1009.8
20260504231610 76 285 1.0 4.0 0.00 0.00 0.00 51 1009.9
20260504230608 76 315 1.0 6.0 0.00 0.00 0.00 51 1010.0
20260504225607 76 295 3.0 7.0 0.00 0.00 0.00 49 1010.1
20260504224605 77 258 2.0 11.0 0.00 0.00 0.00 50 1010.3